Hourly Data Report for October 01, 2015

All times are specified in Local Standard Time (LST). Add 1 hour to adjust for Daylight Saving Time where and when it is observed.

IQALUIT CLIMATE
NUNAVUT

63°44'50.000" N
68°32'40.000" W
33.50 m
2402592
71321
XFB

Download Data

Hourly Data (October 2015)
Hourly Data Report for October 1, 2015
Temp Definition
°C
Dew Point Temp Definition
°C
Rel Hum Definition
%
Wind Dir Definition
10's deg

Wind Spd Definition
km/h
Visibility Definition
km
Stn Press Definition
kPa
Hmdx Definition


Wind Chill Definition


Weather Definition


TIME
00:00 -0.8 -1.6 94 34 11   102.29   -5 LegendNANA
01:00 -0.2 -0.8 96 34 17   102.39   -5 LegendNANA
02:00 -0.5 -1.1 95 34 9   102.47   -4 LegendNANA
03:00 -1.2 -1.9 95 33 4   102.55   -3 LegendNANA
04:00 -1.3 -1.9 96 32 6   102.62   -4 LegendNANA
05:00 -2.6 -3.7 92 36 6   102.68   -5 LegendNANA
06:00 -1.5 -2.5 93 34 4   102.74   -3 LegendNANA
07:00 -0.8 -2.4 90 17 1   102.83   -1 LegendNANA
08:00 -0.4 -1.9 90 16 5   102.88   -2 LegendNANA
09:00 0.5 -1.5 86 16 7   102.88     LegendNANA
10:00 0.8 -1.3 86 16 11   102.89     LegendNANA
11:00 1.3 -1.3 83 15 12   102.88     LegendNANA
12:00 1.5 -1.3 82 15 11   102.88     LegendNANA
13:00 1.8 -1.2 81 14 8   102.92     LegendNANA
14:00 2.2 -1.2 78 17 8   102.89     LegendNANA
15:00 2.6 -2.6 68 27 5   102.89     LegendNANA
16:00 2.0 -2.9 70 31 6   102.90     LegendNANA
17:00 2.1 -3.4 67 25 4   102.89     LegendNANA
18:00 1.6 -2.8 73 12 4   102.87     LegendNANA
19:00 1.6 -2.4 75 17 2   102.89     LegendNANA
20:00 1.3 -1.9 79 14 9   102.86     LegendNANA
21:00 2.3 -1.7 75 18 4   102.79     LegendNANA
22:00 1.8 -1.7 78 15 8   102.71     LegendNANA
23:00 2.7 -1.6 73 19 10   102.68     LegendNANA

Notes on Data Quality.

Legend

  • E = Estimated
  • M = Missing
  • NA = Not Available
  • ‡ = Partner data that is not subject to review by the National Climate Archives
Date modified: